Theta_e
311 309 308 308 309 308 309 309 309 309 309 310 310 310 311 311 312 312 312 313 313 313 313 312 311 310 310 311 311 310 310 309 309 310 310 311 311 312 313 313 312 311 311 311 311 312 312 313 314 314 316 318 318 319 318 320 319 318 327 328 324 327 321 318 321 318 318 321 316 315 317 317 317 316 316 316 316 316 315 316 316 315 317 318 317 316 317 314
309 309 308 308 309 309 309 309 309 310 309 310 310 311 311 311 312 312 313 313 313 312 311 310 310 310 310 311 311 310 309 309 309 310 311 312 312 313 314 313 311 311 311 311 312 312 312 313 314 315 317 318 318 318 318 319 317 320 326 323 329 335 320 314 318 314 316 318 316 315 316 316 316 316 315 316 315 315 316 316 315 316 316 317 316 315 317 316
309 308 308 308 308 309 309 309 310 310 310 310 310 311 311 311 311 311 312 311 311 311 310 310 310 310 311 311 310 309 309 309 309 310 311 313 313 313 314 312 311 311 311 311 312 312 313 314 314 315 317 316 317 318 317 319 317 318 322 323 333 330 317 314 315 314 316 316 315 315 315 316 315 315 315 315 314 314 316 316 316 316 315 315 316 315 316 317
309 308 308 308 308 308 309 309 309 309 310 310 310 310 310 311 311 310 311 310 310 310 310 310 310 310 311 311 310 309 310 309 310 310 311 314 314 313 313 312 311 311 312 312 312 312 314 314 314 315 315 315 316 317 317 318 317 316 322 330 327 317 315 316 315 316 316 315 316 315 315 315 315 316 315 314 314 314 314 315 316 316 315 315 315 315 315 316
309 308 307 307 308 308 309 309 309 309 310 310 310 310 310 310 310 310 310 310 310 310 310 310 310 310 311 311 309 309 310 309 311 310 311 314 314 312 312 312 311 312 312 312 312 313 314 315 314 314 314 314 315 316 317 317 317 315 317 322 317 313 317 317 315 317 315 315 316 314 315 316 316 315 314 314 316 316 314 315 316 315 315 315 315 315 314 314
309 308 307 307 308 308 309 309 309 309 309 310 310 310 310 310 310 310 310 310 310 310 310 310 310 311 311 310 309 309 310 311 314 311 310 314 313 311 312 312 312 312 312 312 312 313 314 315 314 313 313 314 315 316 317 316 317 319 316 314 315 315 317 316 315 316 316 315 315 314 315 315 315 315 315 314 315 316 315 316 316 315 315 315 315 315 315 314
310 309 308 307 307 308 308 309 309 309 310 310 310 310 310 310 310 310 310 310 310 310 310 310 310 311 311 310 309 309 310 312 315 313 311 313 312 312 312 312 312 312 312 312 312 312 313 314 314 313 313 314 314 314 316 316 315 320 318 313 315 316 315 316 315 315 316 316 315 315 315 315 315 316 315 315 316 316 316 317 316 316 316 315 316 316 315 315
310 309 308 307 307 308 308 309 309 309 310 309 310 310 310 310 310 310 310 310 310 310 310 310 310 311 311 310 309 309 310 312 315 313 313 313 312 311 312 312 312 312 313 312 312 312 313 314 314 313 314 313 314 314 314 315 314 317 317 314 314 315 315 315 315 315 316 315 315 315 315 315 315 315 315 315 317 316 316 317 317 316 316 316 316 316 316 315
310 310 309 308 307 308 308 309 309 309 310 309 310 310 310 310 310 310 310 310 310 310 310 310 310 311 310 310 309 309 310 312 313 314 313 313 312 311 312 312 312 312 312 312 312 313 314 314 314 314 314 313 314 314 313 315 315 314 315 314 314 314 315 315 314 315 315 315 315 315 315 315 315 315 316 316 316 316 316 316 317 316 316 317 316 316 316 316
311 310 309 308 307 307 308 308 309 309 309 310 310 310 310 310 310 310 310 310 310 310 310 310 310 310 310 309 310 311 312 313 312 313 314 313 312 311 312 312 312 312 312 313 313 314 314 315 315 315 315 314 314 314 313 315 316 315 314 314 314 314 314 314 314 314 315 315 315 316 316 315 315 315 317 317 316 316 316 316 316 316 316 316 317 316 316 316
311 310 309 308 307 307 307 308 309 309 309 310 310 310 310 310 310 310 310 310 310 310 310 310 310 309 309 309 309 312 316 315 313 313 313 312 311 312 312 312 312 312 312 313 314 314 315 316 316 315 316 315 315 315 314 315 316 315 315 315 314 313 314 314 315 314 315 315 314 316 315 314 314 316 317 316 317 317 316 316 316 316 316 316 316 316 316 316
311 310 309 308 308 307 307 308 308 309 309 309 310 310 310 310 310 310 310 310 310 310 310 310 310 309 309 309 309 312 316 316 315 314 312 312 312 311 312 312 312 312 313 313 313 315 315 316 316 315 316 315 315 316 316 316 316 315 316 318 316 317 319 315 314 314 315 316 315 315 314 315 316 316 317 315 316 317 316 316 316 316 316 316 317 316 316 316
311 310 309 308 308 307 307 308 308 308 309 309 310 310 310 310 310 310 310 310 310 309 310 310 308 308 308 308 309 312 315 315 315 314 312 312 312 312 312 312 312 312 312 312 313 315 315 316 316 316 315 315 316 315 316 315 315 316 315 318 320 321 322 315 313 315 315 316 315 313 314 320 321 315 315 315 315 315 316 316 316 316 316 316 316 316 316 316
311 310 308 308 308 307 307 308 308 308 309 309 309 310 310 310 310 310 310 309 310 309 309 309 308 308 308 310 312 311 313 314 313 313 312 312 311 312 312 312 312 312 313 313 313 314 315 316 315 317 316 315 316 314 318 316 316 318 313 320 323 317 322 319 312 315 315 315 315 314 315 321 322 315 314 316 315 315 316 316 316 316 316 316 316 316 316 316
311 310 308 308 308 307 307 307 308 308 308 309 309 310 310 310 310 309 309 308 309 309 309 308 307 308 307 310 313 311 311 312 313 313 312 312 312 312 312 312 313 313 314 314 313 313 314 315 316 317 315 315 315 316 322 319 321 323 314 322 324 315 325 326 313 313 316 315 315 315 317 320 319 315 315 317 316 316 315 316 316 316 316 316 316 316 316 317
311 310 308 308 308 307 307 307 308 308 308 309 309 309 309 310 309 308 307 307 308 308 308 307 307 308 308 310 313 313 312 312 313 312 312 313 312 312 312 313 314 314 314 314 313 313 314 316 315 316 315 316 318 320 324 322 325 328 318 321 324 317 322 323 314 313 314 316 315 314 317 320 318 315 316 317 316 316 316 317 316 316 317 316 317 317 317 317
312 310 308 308 308 307 307 307 308 308 308 308 308 309 308 308 307 306 306 306 306 306 307 307 307 308 309 311 314 314 312 312 312 312 313 313 312 312 313 314 315 314 315 314 314 314 315 316 315 316 315 314 319 323 321 318 321 324 318 320 324 319 318 321 319 314 312 315 317 315 316 320 319 314 315 316 315 316 316 316 317 316 317 317 317 317 317 317
312 310 308 308 307 307 307 307 308 308 308 308 308 307 306 306 305 305 306 305 306 307 307 308 308 310 311 311 314 314 313 312 311 312 313 312 312 313 314 315 315 315 315 315 315 315 315 315 315 319 318 314 318 322 322 321 322 322 320 320 321 317 317 321 321 315 314 316 317 317 316 319 320 314 314 316 316 314 315 315 316 316 316 316 317 317 317 317
312 311 309 308 307 307 307 307 307 307 307 307 307 306 306 305 305 305 305 306 308 308 309 310 308 312 313 311 313 314 313 312 312 312 312 312 313 314 315 315 315 316 315 315 315 315 315 315 316 318 318 317 318 321 326 327 325 324 325 328 325 320 318 319 319 314 313 316 318 319 318 317 319 315 313 315 315 312 313 315 314 315 316 316 316 317 317 317
312 311 309 308 307 307 307 307 307 307 306 306 306 306 307 307 309 310 308 307 309 310 311 311 309 312 313 311 313 314 313 313 312 312 312 312 313 314 315 314 315 316 315 318 317 314 316 318 319 319 317 318 318 321 324 322 322 324 324 327 325 320 319 317 318 315 311 315 319 318 318 317 317 317 312 312 313 310 310 312 313 315 315 315 316 317 317 317
313 310 308 308 307 307 307 307 307 306 306 306 306 307 308 308 310 311 309 307 309 311 311 310 309 312 312 310 314 314 313 313 312 312 313 313 314 315 315 315 316 316 315 316 315 316 319 318 319 323 321 317 317 319 319 316 319 323 323 325 322 319 319 315 317 317 312 314 319 318 318 317 316 316 311 309 311 310 310 311 312 314 315 315 316 316 316 317
312 309 308 308 307 307 307 306 307 306 306 307 307 308 307 307 310 310 308 307 308 311 312 310 310 313 312 311 314 314 312 313 312 313 314 314 315 314 314 316 317 318 315 314 317 320 321 320 321 321 315 312 315 316 317 320 324 327 323 321 320 318 317 316 317 319 315 314 321 322 319 316 315 315 312 309 310 311 312 312 312 313 313 314 315 315 315 316
310 308 307 307 306 306 306 307 307 306 307 307 307 308 307 307 311 310 307 307 308 309 311 311 311 313 313 313 314 314 312 313 313 313 313 314 315 314 314 315 317 319 316 317 322 320 318 322 320 313 309 313 316 315 318 321 323 327 324 319 320 319 318 319 319 317 315 314 318 321 319 317 315 318 318 311 310 312 313 313 313 313 314 314 315 315 315 315
308 307 307 307 306 307 307 307 307 307 307 307 308 309 307 308 311 310 308 309 309 310 310 310 311 312 314 314 314 313 312 312 313 313 313 314 314 314 314 313 316 319 317 318 321 320 321 318 312 310 314 320 318 315 320 319 316 324 332 330 324 321 320 319 320 318 316 315 318 318 318 320 321 326 328 316 310 311 312 313 314 314 315 316 317 316 316 316
308 307 307 307 307 307 307 307 307 307 306 308 310 309 307 308 311 310 309 311 311 311 310 310 311 311 313 314 313 314 313 312 313 312 312 314 313 314 314 312 315 319 318 318 318 320 321 314 311 315 319 321 320 319 324 323 317 319 329 330 323 324 325 321 322 321 319 317 316 315 315 323 326 325 325 319 313 313 311 309 311 314 315 314 316 316 316 317
308 308 308 308 308 308 307 307 307 307 307 309 311 309 308 309 310 310 312 313 313 311 309 310 311 311 312 313 314 313 313 314 314 313 312 313 313 314 314 313 313 316 316 315 316 318 318 313 315 321 321 320 320 320 321 323 320 315 318 323 325 330 327 321 320 319 320 317 312 314 316 318 319 316 317 317 316 317 314 310 309 312 315 314 313 314 315 315
311 310 308 308 308 308 307 308 307 307 307 309 310 309 309 310 310 310 312 313 313 311 309 309 309 311 312 313 313 313 314 316 315 313 312 313 314 313 314 314 312 313 313 314 317 316 316 316 318 322 324 322 319 319 318 321 322 316 317 322 328 330 324 326 326 318 320 318 317 323 322 317 318 315 317 318 316 319 320 318 313 309 312 314 314 314 315 315
315 314 312 310 308 308 309 309 308 307 307 308 309 309 310 311 309 311 314 311 311 311 309 308 309 311 312 313 313 312 314 316 315 315 312 313 314 313 314 314 314 316 312 314 321 317 314 320 320 321 324 322 321 322 318 321 323 318 317 322 325 327 328 334 334 325 322 316 318 326 318 316 323 320 318 318 316 319 321 322 315 309 311 314 314 316 315 315
317 316 316 314 311 310 311 311 308 307 307 308 308 308 310 310 308 311 314 310 309 311 309 309 310 312 312 312 312 312 313 314 315 315 313 313 314 313 314 313 312 315 311 313 324 319 313 317 318 320 323 321 322 321 317 323 323 316 315 320 323 326 328 331 329 323 321 316 318 325 316 313 322 324 322 317 316 321 322 321 314 309 314 317 315 317 316 317
316 316 317 316 314 314 314 312 308 308 308 308 307 308 308 310 310 309 309 310 312 311 308 309 310 311 312 312 311 312 314 314 314 314 313 314 315 312 314 312 311 316 318 319 324 320 313 312 313 316 318 318 317 315 314 318 315 313 321 326 325 328 329 332 331 321 315 318 322 324 318 312 316 326 327 318 315 318 319 321 318 315 318 318 317 318 317 317
317 316 317 318 316 316 315 312 310 310 309 308 307 307 308 312 314 310 307 310 316 312 308 309 311 312 312 312 312 313 314 314 313 313 314 314 315 313 313 314 313 317 320 321 322 318 315 314 314 314 313 313 316 317 314 315 313 316 329 329 321 326 327 329 331 321 314 320 323 320 318 313 314 324 326 319 319 318 316 319 322 320 318 317 318 318 316 317
318 317 317 319 318 317 316 314 313 312 310 309 307 306 310 312 312 311 309 311 315 314 311 311 312 312 312 312 314 314 316 316 312 313 316 316 316 315 314 316 318 317 316 318 320 317 317 318 314 313 313 313 321 323 318 320 322 320 324 323 316 320 321 321 325 321 318 319 316 317 318 314 316 319 319 320 323 320 315 314 317 318 317 318 318 317 317 317
317 317 317 319 319 318 317 316 315 313 311 309 306 309 315 313 309 311 312 311 312 314 313 313 312 312 313 313 314 315 316 316 313 312 314 316 316 315 315 317 318 318 319 320 320 317 318 321 316 314 316 314 318 323 319 322 323 318 318 320 319 319 318 319 321 317 318 319 314 314 316 317 320 318 317 319 317 314 312 311 313 315 316 318 317 317 317 316
315 317 318 319 319 318 318 318 317 313 309 308 307 311 314 312 309 311 312 311 313 314 313 314 313 312 312 312 313 314 314 314 314 313 314 315 316 315 316 314 314 322 325 320 318 318 317 320 319 317 317 315 316 319 321 323 320 318 318 316 318 323 322 321 321 318 318 320 316 313 316 323 323 316 315 315 311 311 312 312 312 312 314 316 315 316 316 316
313 316 317 318 319 318 318 319 318 312 308 309 309 310 310 308 310 312 311 313 317 316 313 312 312 311 312 312 313 313 314 315 314 314 315 315 315 315 315 313 313 322 323 316 316 318 315 317 320 315 313 316 317 315 317 320 319 318 317 314 315 321 323 318 317 319 319 319 318 315 319 325 320 315 314 311 310 312 311 312 314 313 314 314 313 314 313 315
311 314 316 317 317 318 317 319 318 313 309 310 309 309 309 310 314 315 312 316 318 314 312 312 312 313 311 312 314 312 312 317 315 314 315 314 314 314 315 314 313 315 316 315 318 317 315 318 318 314 312 314 315 312 312 315 318 316 315 318 317 316 321 319 314 314 313 314 317 316 319 321 316 315 316 312 313 314 311 312 313 313 314 313 314 313 312 314
310 311 313 315 316 316 316 318 319 314 310 310 309 308 309 310 315 319 317 315 314 312 313 312 312 313 311 312 315 313 312 317 315 314 315 314 314 314 314 314 312 312 313 314 317 318 320 320 316 314 316 313 310 312 311 310 315 319 319 320 315 311 318 322 317 318 316 315 317 317 316 316 314 316 316 312 311 313 315 314 311 312 314 313 314 313 313 316
309 310 311 312 314 315 316 317 317 314 311 311 309 310 314 312 311 316 316 312 312 313 315 315 314 313 312 313 314 313 313 316 315 314 315 314 314 315 314 314 312 311 311 310 313 316 319 318 314 313 317 315 312 314 316 312 312 317 318 316 316 318 320 319 316 319 318 315 320 320 315 313 313 315 314 311 313 315 317 317 314 313 312 312 314 314 315 316
308 309 309 310 312 314 315 316 315 314 311 311 309 311 316 315 311 312 313 313 315 315 314 317 316 313 313 314 314 313 313 314 314 315 315 313 314 314 312 314 314 311 309 310 313 315 315 314 315 313 313 314 314 315 319 318 313 313 313 312 317 323 322 320 317 317 317 316 318 318 314 313 315 316 315 312 316 319 317 318 317 312 310 312 314 316 316 316
308 308 308 308 310 312 314 315 314 313 312 311 310 311 313 314 312 311 311 314 316 316 318 322 318 314 314 314 314 314 313 315 314 314 314 313 313 313 311 312 314 312 309 309 311 315 314 312 314 313 311 313 317 317 317 319 317 316 316 315 317 317 317 319 317 315 319 320 319 316 313 316 318 316 315 314 317 318 316 318 318 312 311 315 315 316 316 315
307 306 307 308 308 310 312 313 312 310 311 311 311 312 313 313 313 311 310 312 314 314 318 323 320 317 317 314 314 315 314 315 315 314 314 312 312 314 313 312 313 313 311 309 312 316 313 313 318 318 315 316 320 318 315 316 317 316 316 316 317 316 316 317 316 314 316 317 320 317 312 316 318 314 314 317 317 314 312 312 314 313 314 316 315 315 316 315
305 306 307 308 307 308 310 311 310 308 309 310 310 311 312 313 314 314 311 311 313 313 315 318 319 321 320 316 316 316 315 315 315 315 315 313 313 315 313 311 312 311 312 312 313 313 312 316 322 321 318 319 320 314 309 312 316 315 316 317 316 316 317 317 318 318 317 315 317 318 315 315 315 312 314 315 312 310 311 311 312 313 314 315 315 315 315 315
304 305 307 308 308 309 309 309 309 308 307 309 309 310 311 312 314 315 313 312 314 315 314 316 317 318 319 318 317 316 314 315 315 315 317 315 313 314 313 312 312 311 312 314 313 311 311 316 318 318 319 320 321 316 310 313 315 314 317 318 316 317 319 321 322 321 320 318 316 317 316 315 313 311 309 308 308 310 312 312 312 313 314 314 315 315 315 316
303 305 308 309 309 309 309 309 310 309 308 308 309 309 311 312 313 314 314 314 315 315 316 317 315 314 317 319 318 317 315 314 315 315 317 316 313 313 312 312 313 312 312 314 314 311 312 317 317 316 318 318 321 320 316 316 316 316 320 320 317 318 319 319 319 316 317 321 319 316 315 314 315 315 312 311 312 311 311 312 313 313 314 314 315 315 315 315
302 303 305 308 310 309 308 309 309 309 308 308 309 309 310 311 311 312 314 314 314 314 316 316 314 314 317 317 318 319 317 316 317 316 317 317 314 313 312 312 313 312 312 313 313 311 315 319 316 315 315 315 317 318 317 318 317 318 323 321 316 318 317 316 317 316 316 319 318 316 315 313 314 316 317 317 317 314 312 312 312 312 313 314 315 315 315 315
302 303 303 305 308 309 309 309 308 308 309 309 310 310 310 311 311 311 312 313 313 313 314 315 315 315 317 317 317 319 317 316 317 317 317 319 318 315 312 311 312 311 312 313 311 313 321 321 315 313 314 313 314 317 319 320 319 318 320 319 316 316 316 316 317 317 316 315 316 315 315 314 314 314 315 317 319 319 315 311 311 313 314 314 314 314 314 314
302 303 302 303 307 308 308 308 308 308 309 309 310 311 310 311 312 312 312 312 313 314 314 315 315 316 317 317 317 319 318 317 317 317 319 319 318 315 312 311 312 311 312 312 310 314 322 319 315 315 314 314 318 322 320 317 317 317 317 318 317 316 316 316 316 316 315 314 316 316 314 314 314 313 315 317 319 319 313 309 311 313 313 314 314 314 314 314
302 302 301 302 305 306 307 309 308 308 309 309 309 311 310 311 311 312 312 312 313 314 314 314 315 316 316 316 317 317 317 316 317 317 319 318 317 316 314 313 312 311 312 312 311 315 322 319 316 315 314 316 321 322 319 316 316 317 316 316 317 316 315 316 315 315 315 315 315 315 315 316 313 313 316 315 313 314 312 311 312 313 313 314 314 314 314 314
300 301 300 301 303 303 305 307 308 308 308 308 309 310 310 311 311 311 312 312 313 313 313 314 314 315 315 316 316 317 316 316 317 316 317 318 317 317 317 317 313 310 312 316 314 314 318 319 319 316 315 317 319 318 317 317 316 317 317 317 316 315 314 314 314 314 314 315 315 314 316 316 313 313 316 313 311 312 312 312 312 312 313 313 313 313 313 314
299 300 301 301 302 301 302 305 307 307 307 307 309 309 309 310 311 311 312 312 312 313 313 313 313 313 314 314 315 316 315 315 317 317 317 318 318 316 317 318 315 311 314 318 316 313 314 317 319 318 317 318 318 317 318 318 317 317 319 319 317 315 313 313 313 314 314 315 315 315 315 315 312 312 313 312 312 312 312 312 313 313 313 312 312 313 313 313
299 300 300 301 302 302 302 303 305 307 307 307 307 308 308 309 310 310 311 311 311 312 312 312 313 313 313 313 314 314 314 314 315 314 313 314 316 314 314 315 316 316 317 317 317 316 316 316 317 318 318 318 317 317 317 317 317 317 318 319 317 315 314 313 313 314 314 315 316 315 315 315 313 312 312 312 311 311 311 312 312 312 313 313 313 313 313 312
299 300 300 300 301 302 303 303 304 305 306 306 306 307 307 307 308 309 311 311 310 312 312 312 312 313 313 313 313 313 312 312 312 311 310 311 312 311 311 312 313 316 317 316 315 316 317 318 318 318 318 317 317 318 317 316 317 318 317 317 315 314 315 314 314 314 314 314 315 315 315 314 314 314 314 314 312 311 311 312 312 312 312 313 313 312 312 311
Wind_Speed
20 19 20 21 22 24 23 23 23 22 22 21 21 21 20 20 20 20 19 18 17 17 17 16 15 14 14 13 12 11 10 10 10 11 11 11 12 12 14 10 6 8 8 9 8 8 8 8 9 11 11 9 6 6 5 5 4 1 3 2 2 3 2 4 5 5 3 4 7 11 14 10 5 7 10 8 7 11 11 7 8 10 8 7 6 6 13 18
20 20 21 22 22 24 25 24 23 22 22 22 21 21 20 20 19 19 18 18 17 17 17 16 15 14 14 13 12 11 10 10 10 11 11 12 13 12 13 10 8 8 8 9 9 9 10 10 10 11 12 9 5 6 6 6 5 2 3 2 3 5 3 3 4 5 2 5 12 13 14 11 8 11 12 6 5 10 8 5 8 10 10 10 8 9 13 17
20 21 21 23 23 23 25 24 23 22 22 22 22 21 20 20 19 18 17 17 17 17 16 15 14 14 14 13 12 10 10 9 9 11 12 12 12 12 12 10 9 9 9 9 10 10 11 11 10 11 12 8 4 7 7 6 6 2 3 2 5 6 4 1 1 1 3 8 15 13 13 10 7 12 12 7 6 7 7 9 9 11 14 13 12 11 13 16
20 21 21 23 24 24 24 25 24 22 22 22 22 21 20 20 18 18 17 17 16 16 15 14 14 14 14 14 12 10 9 7 8 12 13 12 11 12 11 9 10 9 9 10 10 11 11 9 8 10 10 5 4 6 6 6 6 3 4 4 5 4 2 1 3 4 2 13 17 13 11 7 7 12 11 9 7 4 11 17 14 14 16 16 16 15 14 15
18 20 21 22 24 25 25 25 24 22 22 22 21 21 20 19 18 17 16 16 15 15 15 14 14 15 14 14 12 11 9 3 7 13 14 13 11 11 10 9 10 10 10 10 11 12 11 8 7 9 8 3 4 4 4 9 7 2 1 3 3 4 3 1 2 3 5 12 13 12 10 7 8 10 13 12 8 7 13 18 17 14 15 15 17 17 17 17
17 19 20 21 24 25 25 25 24 23 22 22 21 21 20 19 17 16 15 15 15 14 14 14 14 15 15 15 12 12 10 2 6 14 15 14 11 11 10 9 10 10 10 10 11 12 10 8 6 9 7 2 6 5 4 10 8 2 1 1 2 3 3 3 3 3 7 12 12 11 9 9 9 6 12 14 12 10 9 11 14 14 14 14 16 18 19 19
17 18 19 21 23 25 25 25 25 24 23 22 22 21 20 19 17 16 15 14 14 14 14 14 15 15 15 15 12 13 12 3 5 14 15 14 12 11 11 9 9 9 10 11 12 12 11 9 7 9 6 2 6 6 4 9 7 4 2 2 2 1 3 4 4 5 7 11 11 10 9 10 10 5 7 14 17 13 7 6 8 12 14 15 17 19 19 19
18 18 19 21 22 24 25 25 24 25 24 22 21 21 20 19 17 16 15 14 14 13 14 14 15 16 15 14 12 11 13 6 4 11 15 14 13 13 12 10 10 9 11 11 11 12 12 10 8 8 4 1 6 6 5 6 2 3 3 4 3 1 2 2 4 5 5 8 9 9 7 8 10 4 5 14 17 13 11 9 6 8 12 15 18 19 20 20
18 19 20 21 21 22 23 24 24 24 24 22 21 20 19 18 17 16 15 14 14 13 14 15 15 16 15 14 12 7 10 10 3 8 15 15 14 14 13 11 11 9 11 12 11 13 13 10 8 7 3 3 7 7 8 6 1 4 7 7 6 2 3 3 3 5 4 5 6 6 3 3 7 3 8 16 17 15 15 14 12 10 11 12 14 17 18 19
18 19 20 21 21 21 22 23 23 23 23 22 20 19 18 17 17 16 15 14 14 13 14 15 15 16 15 14 11 6 9 11 6 7 13 15 15 15 14 12 11 10 10 12 12 12 13 8 7 9 4 3 7 5 6 5 3 7 10 8 6 4 3 3 3 4 4 3 3 4 2 2 5 1 6 10 9 13 18 17 17 15 14 13 13 15 17 18
18 19 20 21 22 22 23 23 23 23 22 22 20 19 18 17 16 15 15 14 14 14 14 15 15 15 15 15 12 7 7 9 8 9 13 15 16 15 14 13 11 10 10 11 13 12 11 7 7 8 4 4 6 4 4 6 7 13 14 7 4 2 2 2 3 5 4 2 2 3 2 2 3 2 11 10 2 7 15 19 19 18 17 16 15 16 17 19
18 19 21 22 23 23 23 24 24 23 22 21 20 19 18 16 15 15 14 14 14 14 15 15 15 15 14 14 14 10 6 6 9 11 14 16 17 16 14 13 12 11 10 10 12 12 9 8 7 6 5 8 6 3 4 7 11 13 10 4 5 7 2 4 3 5 4 2 2 2 1 3 3 8 17 12 5 6 10 17 21 20 20 18 18 18 19 20
19 20 21 22 23 24 24 24 24 23 22 21 20 19 17 16 15 15 14 14 14 14 15 15 14 14 14 12 13 13 7 5 9 12 15 17 17 15 13 13 12 11 10 10 11 12 10 7 6 6 8 10 5 5 6 7 10 8 4 4 2 7 4 4 2 4 4 2 2 2 1 6 6 14 18 11 10 11 11 16 20 22 22 20 20 20 20 20
19 20 21 22 23 25 24 24 24 23 22 21 20 19 18 16 15 14 14 14 14 14 15 15 14 15 13 9 9 14 11 5 7 12 15 17 17 14 12 11 11 11 10 9 11 12 10 7 6 7 8 8 8 10 6 4 5 3 1 2 2 1 4 6 0 5 5 2 2 4 1 7 8 12 10 7 12 13 14 16 17 20 21 21 21 21 22 21
19 20 22 23 23 25 25 24 24 22 22 21 20 19 17 16 15 14 14 14 15 14 14 15 15 14 11 6 6 12 14 8 7 11 15 16 16 13 12 11 11 11 10 9 11 12 10 8 8 7 8 9 11 9 4 4 3 3 2 1 3 3 5 8 1 8 6 2 2 5 1 6 9 10 5 4 5 9 13 15 14 17 18 20 21 22 23 23
19 21 23 24 25 25 25 25 24 23 22 21 20 18 17 16 14 14 14 14 14 14 14 14 15 13 6 5 7 10 14 12 9 12 14 15 15 13 12 12 10 11 10 10 11 11 11 9 7 8 8 8 8 6 4 4 3 4 3 2 2 2 3 5 2 5 4 2 1 2 3 4 4 4 3 8 3 4 9 11 12 14 16 18 20 22 24 24
19 22 23 25 26 26 26 25 24 23 21 20 19 17 16 15 14 14 13 14 13 13 13 13 15 11 4 5 8 10 14 14 12 12 14 15 14 13 13 12 11 11 11 11 11 11 11 9 7 6 4 4 4 5 5 1 3 2 2 1 3 3 2 2 2 3 1 2 1 1 3 6 6 8 7 3 3 5 9 13 14 15 18 20 22 23 24 25
19 21 23 26 27 27 27 25 24 23 21 20 19 17 16 14 14 14 14 15 14 13 11 12 14 7 5 9 10 11 14 15 14 14 15 16 15 14 14 12 12 13 12 11 9 8 8 5 5 3 3 3 2 5 4 4 5 5 3 2 2 2 3 3 3 2 1 2 2 1 3 9 11 13 19 20 16 14 16 20 22 22 23 25 25 27 27 28
19 20 23 26 27 28 27 25 25 23 23 22 20 19 18 16 15 14 16 18 16 10 5 12 18 5 3 13 14 12 15 16 16 17 17 17 16 15 14 12 13 14 12 7 4 5 5 4 5 3 1 3 4 6 6 7 8 8 6 5 4 3 3 5 4 4 1 2 4 5 6 8 10 11 16 24 21 15 18 22 24 25 26 27 28 29 30 31
19 20 24 26 27 28 27 27 26 25 25 23 23 22 18 16 12 8 15 18 14 6 0 13 22 4 2 14 19 15 16 16 17 20 19 19 18 16 14 13 12 10 7 5 3 2 4 4 3 4 7 7 7 7 6 5 6 7 6 4 4 4 3 3 3 4 1 3 5 5 5 8 10 10 15 23 19 12 17 21 25 28 29 29 29 29 31 32
19 21 24 26 28 28 28 28 26 27 26 24 28 22 16 19 10 5 14 14 12 6 1 14 23 7 1 14 20 18 17 15 17 21 20 19 19 15 12 11 8 4 1 4 5 2 4 4 6 7 9 8 6 6 6 6 5 5 6 5 2 2 3 3 2 4 1 1 4 3 5 10 10 10 15 20 14 13 21 23 26 31 31 31 30 31 32 32
21 22 25 26 28 29 28 29 27 28 27 27 30 19 15 22 13 11 17 9 11 9 3 16 21 8 4 12 17 17 15 11 13 20 20 20 19 13 10 8 5 4 1 3 6 4 4 3 9 9 6 5 4 5 7 6 5 5 4 4 2 2 2 4 4 5 3 1 4 5 6 11 10 9 14 18 17 19 23 23 26 29 29 31 32 33 34 33
23 24 27 27 28 29 28 28 27 28 28 28 28 16 16 22 12 13 18 7 9 12 6 14 17 10 9 12 16 16 13 9 10 20 21 20 19 13 11 8 4 5 3 4 6 4 2 5 8 6 6 7 6 4 7 6 4 4 4 4 2 2 1 2 4 5 3 2 2 4 6 10 8 5 10 15 17 19 20 19 22 23 25 29 30 32 32 32
24 26 29 30 30 29 28 28 28 28 28 28 24 15 18 22 13 14 15 5 4 10 10 12 13 14 12 11 16 15 12 9 11 20 24 22 18 12 10 9 6 5 4 5 8 7 5 6 3 6 6 7 7 3 6 6 1 1 3 5 3 3 3 3 2 3 3 4 3 4 6 8 5 4 6 7 6 11 14 14 17 19 20 22 23 25 27 27
24 26 28 30 30 29 28 28 28 28 28 26 20 15 19 21 15 16 12 4 1 6 9 12 10 14 15 11 15 14 10 9 10 19 25 24 20 11 7 8 6 4 5 6 8 5 6 4 4 8 5 5 7 2 4 7 2 3 2 6 7 6 6 2 2 4 5 4 4 5 4 6 5 4 7 6 5 9 12 11 18 25 23 22 24 25 25 24
22 24 25 26 26 28 26 23 25 27 27 25 17 16 20 19 16 17 10 4 1 3 6 11 8 11 16 13 15 14 6 5 9 19 25 23 19 12 7 5 3 4 6 6 5 3 3 0 5 7 5 6 5 2 3 5 5 1 4 5 7 8 7 4 2 3 1 3 3 4 3 5 8 6 7 6 6 10 11 10 19 27 26 26 27 27 27 24
18 19 21 23 24 26 23 19 25 27 25 23 17 17 20 18 17 17 8 5 3 5 7 9 8 11 14 14 19 13 3 6 9 15 24 21 16 12 7 4 2 3 6 6 2 2 2 3 5 6 6 6 5 3 4 6 7 3 4 6 8 8 7 5 5 3 2 3 5 4 4 2 7 6 4 2 6 9 11 11 15 21 23 22 21 21 20 19
18 18 18 19 21 23 21 19 24 26 24 24 19 18 18 18 18 15 6 2 3 6 6 7 9 11 13 17 22 12 6 12 9 9 22 21 14 9 4 6 6 5 4 6 4 4 1 4 4 6 6 3 4 4 5 7 6 4 4 7 7 7 7 5 6 3 1 2 5 4 2 2 7 7 3 3 5 8 10 10 11 16 17 14 11 10 8 6
18 18 18 17 18 20 19 19 23 24 24 25 21 17 16 18 16 9 3 1 3 4 4 9 11 11 13 16 15 8 9 10 4 10 20 17 13 6 2 7 8 6 4 4 6 3 1 3 5 7 6 4 4 2 3 5 4 4 6 7 5 6 6 5 5 3 2 2 5 6 4 2 6 7 5 3 2 6 9 8 9 11 11 6 3 2 4 6
18 18 18 17 17 18 17 18 23 23 22 25 24 18 16 16 11 6 2 4 3 2 3 9 9 10 14 12 4 3 6 3 5 15 14 9 10 6 5 7 7 7 5 6 4 2 2 1 1 3 4 5 5 3 2 3 6 8 7 7 6 6 5 4 3 4 2 3 6 6 5 2 4 7 4 2 3 5 5 5 7 8 9 8 8 10 11 10
20 20 19 17 17 17 17 19 22 22 20 22 24 21 14 8 4 4 6 3 3 2 3 4 4 7 15 11 4 3 2 2 7 14 8 4 6 5 6 6 3 5 3 4 3 4 4 3 1 1 2 5 7 6 6 5 6 7 5 5 4 4 4 4 4 4 1 5 6 5 2 3 4 6 4 5 6 6 4 3 6 7 10 12 12 12 10 6
22 24 21 18 17 16 17 20 20 20 20 21 25 23 12 4 2 4 4 1 2 3 4 4 4 6 11 8 5 4 3 2 4 7 6 4 4 4 4 5 4 4 2 3 1 2 2 1 3 2 1 5 6 5 4 5 5 6 5 6 4 2 3 3 3 0 3 6 4 3 1 2 6 7 7 9 8 8 7 3 5 4 6 9 9 7 4 4
19 24 25 20 18 18 17 18 19 20 20 24 26 18 7 3 7 6 2 1 2 3 4 5 3 6 10 8 5 5 3 2 4 4 3 4 4 5 3 2 5 5 3 5 3 2 0 5 3 1 2 5 6 6 3 1 1 4 5 6 4 2 1 3 4 2 4 5 3 3 1 3 5 4 8 11 8 6 7 6 6 3 2 2 2 1 6 9
12 19 26 24 20 20 18 17 19 19 22 28 23 11 5 5 6 3 4 4 1 3 2 5 7 7 8 5 4 5 3 1 5 5 3 4 5 6 5 4 4 5 4 4 3 5 4 4 4 4 2 6 6 5 7 6 4 4 4 6 5 5 5 4 4 3 4 4 3 3 1 3 3 2 7 11 11 10 8 8 10 9 6 6 7 10 11 10
9 12 20 24 23 22 19 17 17 18 25 27 15 5 7 9 4 3 6 5 1 3 3 4 9 8 5 1 1 5 2 1 4 4 4 6 5 7 6 5 6 4 5 5 2 3 4 4 6 2 1 9 8 4 6 7 2 2 3 5 3 5 5 2 3 5 3 2 3 2 3 5 4 5 9 9 12 14 11 10 13 14 10 8 12 14 12 8
9 9 12 17 23 23 20 19 16 19 25 20 8 6 8 5 3 4 5 4 4 5 7 5 4 5 5 2 2 5 1 2 4 4 3 4 3 6 6 5 8 7 6 6 3 2 3 4 5 3 1 4 4 4 5 4 3 2 2 3 5 4 7 4 2 1 3 2 4 2 4 5 3 6 9 6 8 11 11 9 10 12 12 11 15 13 6 3
8 9 10 11 14 18 21 21 17 19 22 14 7 8 4 1 3 3 1 4 8 9 9 5 2 4 6 3 4 7 2 2 4 3 3 3 2 6 6 4 7 10 8 5 2 3 5 1 4 1 2 2 1 4 3 3 4 5 3 6 3 2 4 4 2 3 3 3 5 1 5 5 2 5 6 5 3 7 8 7 7 12 15 16 14 9 5 5
10 9 8 9 9 12 18 18 15 18 16 8 7 7 1 1 1 0 0 3 8 8 6 5 3 4 6 5 5 6 5 4 5 4 4 3 4 6 8 4 6 12 13 6 2 3 5 2 4 1 3 3 3 4 2 4 3 5 4 4 4 2 1 2 2 2 1 3 5 4 5 4 5 6 1 2 4 6 6 6 5 10 16 13 7 9 12 12
14 11 7 9 9 8 10 12 13 16 11 5 8 7 1 1 1 1 2 2 4 5 4 5 3 2 5 6 5 6 6 6 7 6 4 4 4 5 10 7 5 12 17 10 4 2 4 3 3 2 1 1 3 2 4 0 3 3 3 3 3 2 4 3 2 3 3 3 3 4 4 4 5 6 7 7 8 7 7 7 6 11 12 6 8 13 15 17
13 9 6 11 13 9 7 10 12 11 6 4 5 3 1 0 2 1 2 3 3 3 3 4 3 4 5 5 4 5 5 5 7 6 4 5 5 4 7 9 4 8 15 11 5 2 3 3 4 2 2 1 2 4 7 8 5 3 4 4 2 2 2 2 1 2 4 4 3 2 5 6 4 4 8 9 9 9 7 6 6 5 3 8 12 14 15 17
12 6 5 12 17 14 9 8 6 4 2 1 1 1 1 0 1 1 1 3 3 3 2 3 4 4 5 4 4 5 5 4 6 6 3 5 6 3 7 11 8 8 8 6 5 4 2 3 4 2 1 4 5 5 6 10 8 7 7 8 7 5 4 3 3 1 2 3 4 3 7 9 5 5 7 8 8 8 7 7 5 7 14 14 12 14 15 16
12 3 4 12 17 18 13 5 3 3 1 1 1 2 2 1 1 0 1 2 2 2 3 3 2 3 4 4 4 5 6 4 5 5 4 6 7 4 6 11 15 16 11 5 6 6 3 4 5 3 4 6 6 5 3 5 3 2 3 5 6 5 5 6 5 4 1 2 3 3 4 7 3 4 6 6 6 7 9 8 8 12 13 13 13 14 14 14
11 4 7 14 18 21 14 3 3 4 1 2 3 2 2 2 1 0 1 1 1 1 2 1 1 2 2 2 3 6 6 5 6 7 5 4 6 5 3 6 13 15 10 4 4 4 3 4 4 1 3 3 5 5 3 1 0 1 1 2 5 4 4 5 5 4 3 4 3 3 5 7 2 1 4 4 4 5 6 7 9 9 10 13 12 11 11 11
9 5 8 14 19 22 14 3 4 5 3 4 5 3 3 2 1 2 2 2 2 2 2 1 0 1 1 2 3 5 5 4 6 7 4 3 5 5 2 5 11 11 7 6 7 9 6 2 4 3 1 3 4 3 3 2 1 3 2 3 6 6 5 4 2 3 2 7 8 5 8 7 2 4 2 3 5 5 6 6 5 6 10 10 8 9 10 11
7 4 5 11 18 21 11 2 4 5 4 6 5 5 5 2 4 6 3 2 4 3 3 2 2 3 2 2 3 2 1 2 4 4 3 3 3 1 1 4 11 12 8 8 11 14 8 4 5 6 6 7 6 5 5 3 2 2 3 6 8 8 9 6 3 3 5 8 7 6 10 8 2 3 4 4 5 4 1 1 5 8 7 6 6 9 13 17
5 3 3 6 12 15 9 5 6 5 5 7 4 5 9 4 3 8 8 4 5 6 3 1 3 4 2 2 3 2 1 2 2 2 3 3 3 2 2 2 6 11 7 7 13 13 5 2 7 10 11 11 9 7 6 6 7 6 6 9 10 9 11 8 4 6 9 6 4 8 12 12 9 3 1 2 2 2 5 8 10 9 7 8 12 16 21 25
3 1 3 4 4 7 7 6 7 4 5 9 4 3 10 8 2 4 8 7 8 9 3 2 2 3 3 5 4 3 2 2 3 2 2 4 2 2 2 3 3 5 4 6 12 10 4 3 8 11 12 9 6 6 6 9 12 12 11 11 12 11 12 11 10 12 10 3 6 13 11 11 17 11 7 8 7 3 9 14 14 11 10 15 19 24 28 28
3 1 3 5 2 3 5 7 9 5 4 8 6 4 8 10 6 5 7 5 5 9 5 0 4 6 6 6 4 3 4 2 1 2 2 2 1 2 2 2 3 2 2 3 5 5 4 5 6 7 9 7 4 3 6 10 9 9 11 13 14 14 15 16 18 19 13 9 13 17 10 13 19 9 7 11 9 7 13 16 13 11 16 22 24 25 26 26
6 3 4 4 2 1 2 7 11 7 4 5 5 5 8 12 11 8 6 4 2 6 8 5 7 9 7 5 5 4 5 5 4 4 3 3 3 1 1 0 2 4 4 3 1 1 3 3 1 3 5 5 5 4 5 8 5 3 8 11 12 15 19 19 20 19 14 12 15 14 8 12 14 4 6 12 11 10 15 15 14 17 20 22 21 21 23 23
6 4 3 2 1 0 1 6 11 7 5 5 4 5 7 11 14 10 6 7 5 4 8 10 10 10 9 8 6 6 7 6 4 4 5 4 3 2 2 2 1 3 4 3 2 3 2 2 1 3 2 4 5 5 4 6 5 4 5 7 10 13 14 14 13 10 7 9 13 12 11 14 9 7 9 16 13 11 15 17 20 22 18 17 18 19 19 18
10 7 5 0 1 1 2 4 6 5 5 6 6 6 7 9 12 9 5 10 12 8 10 14 10 7 7 8 8 8 9 8 5 4 7 6 4 3 2 2 2 3 3 1 1 2 2 1 2 4 3 5 4 7 5 5 4 2 8 12 12 10 8 8 8 8 9 12 13 11 12 15 6 6 9 14 8 9 15 16 17 17 15 15 17 16 13 11
16 11 8 2 1 2 3 2 4 5 5 8 9 6 5 5 8 9 5 9 15 16 17 16 10 6 5 8 12 17 20 17 13 9 8 8 8 8 7 7 4 4 2 2 1 1 3 3 1 3 4 6 4 7 7 5 3 5 12 15 14 10 8 7 6 9 11 11 9 9 11 11 5 3 7 9 5 9 15 11 7 10 11 11 11 10 7 5
Wind_Direction
194 186 183 183 177 171 174 179 180 178 175 174 175 174 175 177 175 169 170 175 178 184 189 189 185 180 178 178 179 184 192 197 200 200 200 192 183 180 183 188 185 179 180 183 183 180 171 157 165 173 170 162 156 169 169 185 193 149 125 102 203 197 203 185 181 203 181 167 185 183 176 163 154 155 145 141 158 158 161 177 172 184 182 170 181 164 172 176
191 187 183 182 181 177 176 179 180 178 176 176 176 175 176 180 176 171 174 178 182 188 189 187 182 177 175 175 179 187 193 197 201 199 194 186 181 178 180 186 183 180 184 185 183 175 163 155 161 168 171 165 154 172 173 188 190 152 115 118 220 207 195 196 194 211 211 176 175 175 179 176 176 168 155 146 162 157 155 173 175 187 184 175 174 164 174 181
188 188 185 181 183 182 179 179 180 180 178 178 178 177 178 182 178 172 177 183 185 188 187 183 180 175 173 175 180 186 192 197 203 198 189 182 181 179 178 182 182 183 190 188 182 172 162 156 158 161 167 168 165 177 171 176 190 186 120 138 239 217 195 293 4 241 243 185 166 167 180 182 189 177 171 169 169 174 182 186 184 195 197 190 185 176 177 184
193 188 186 183 183 185 183 180 179 181 180 180 181 178 181 184 180 174 180 185 187 188 185 181 178 175 174 176 178 183 185 196 208 195 185 181 181 182 178 180 181 185 193 189 182 175 164 154 158 165 166 174 178 181 182 179 190 186 137 179 227 196 167 350 31 14 207 173 165 166 169 186 202 185 185 167 149 226 221 205 208 215 211 200 194 190 185 188
202 192 188 186 185 186 186 182 179 180 182 183 182 181 182 184 180 178 182 185 188 188 183 179 178 177 176 176 176 177 169 166 204 189 183 184 182 180 177 178 182 185 190 191 186 180 173 162 163 172 171 176 156 164 213 189 174 139 159 206 184 159 155 180 72 52 158 165 161 159 161 190 191 185 195 178 165 227 229 220 226 231 225 214 206 201 195 194
207 200 193 190 188 187 187 185 180 179 183 185 185 183 183 184 180 180 184 186 188 188 184 179 178 179 178 178 175 174 170 147 189 183 181 185 180 173 175 177 178 182 189 191 189 185 186 177 167 173 169 160 166 172 202 186 176 139 255 247 146 174 168 157 140 115 164 162 151 158 172 181 171 190 209 202 211 226 236 235 232 235 235 230 219 209 205 202
208 205 199 195 192 190 189 188 183 180 182 187 188 185 182 183 180 181 186 187 188 187 185 181 179 181 179 178 174 179 193 190 160 177 179 178 176 172 173 174 173 182 188 189 191 191 192 182 167 167 156 114 179 194 184 175 176 143 196 235 146 180 159 150 153 133 157 161 152 157 169 177 177 193 212 219 231 231 234 229 218 224 227 230 225 218 217 214
210 208 204 200 197 194 191 190 187 182 183 187 190 187 185 183 180 182 185 188 189 186 186 184 180 181 180 179 178 186 205 201 141 175 177 173 177 175 173 172 174 182 186 187 189 188 188 181 170 167 159 175 187 190 166 148 150 135 165 203 163 157 171 152 168 152 143 151 149 155 165 187 194 205 241 236 237 230 224 220 200 200 211 223 226 225 225 221
212 210 207 204 201 198 194 192 191 186 183 186 191 190 188 185 181 182 185 187 188 187 187 185 182 182 180 181 181 186 204 200 170 173 175 176 179 178 176 174 176 179 183 187 185 185 185 177 179 184 190 214 184 171 161 147 230 186 159 172 162 152 164 144 180 173 153 150 150 167 176 195 198 243 270 249 246 236 226 224 222 218 218 218 219 223 224 224
214 212 207 205 202 198 196 195 194 191 185 185 190 191 191 188 183 182 186 187 186 189 188 186 184 183 181 180 178 184 200 198 191 175 176 181 182 181 181 180 180 177 182 186 183 182 178 169 180 187 182 178 160 147 157 154 182 166 143 142 137 134 158 151 183 175 168 162 152 182 184 186 182 190 260 254 253 234 225 223 226 231 233 228 223 223 223 224
214 212 207 203 202 199 196 195 195 194 188 186 189 191 192 190 186 182 186 188 187 188 189 189 186 183 183 181 183 189 191 194 193 181 181 186 185 186 186 190 191 185 187 189 186 181 173 163 163 175 183 159 147 118 128 140 143 147 135 114 53 51 180 207 181 174 177 150 132 153 152 197 147 169 245 243 224 229 225 223 225 230 235 234 233 231 227 226
216 211 207 202 200 199 196 194 194 194 192 188 189 191 193 192 188 183 184 188 188 187 188 189 187 184 183 186 198 198 179 186 189 183 187 189 188 189 192 197 200 197 197 195 191 183 174 171 164 176 173 153 146 102 120 135 137 141 128 105 349 6 351 241 197 184 183 148 158 102 12 265 188 220 242 239 231 258 240 226 226 229 235 238 239 237 234 235
217 209 207 203 200 199 196 194 193 193 192 190 190 191 192 193 191 184 183 187 189 188 187 188 188 185 181 189 207 201 185 181 183 184 189 191 191 191 195 199 201 202 201 201 196 186 179 176 172 176 158 149 145 122 130 125 131 141 108 99 23 10 342 261 201 185 175 157 189 118 281 275 255 240 247 254 254 259 247 232 228 228 234 238 240 241 241 242
215 208 206 203 201 199 196 194 193 193 191 190 190 190 191 191 191 187 183 184 187 188 185 186 187 184 184 195 209 203 199 187 181 186 189 192 192 190 194 194 195 197 197 197 191 187 181 167 161 160 147 146 138 124 107 70 108 131 76 67 55 83 279 296 195 162 155 195 207 111 193 262 278 275 279 274 252 245 238 234 230 230 233 236 240 242 246 248
213 207 203 201 201 199 197 194 191 191 192 191 189 189 190 189 190 188 183 182 183 186 186 184 184 182 190 205 208 203 202 198 189 186 187 191 191 188 186 183 184 186 185 182 179 181 174 164 159 139 123 132 130 117 62 14 32 47 99 310 343 163 259 309 228 171 162 204 187 109 202 266 281 289 341 16 244 224 229 236 235 235 235 238 241 244 250 254
214 207 201 200 198 197 197 194 190 190 192 191 188 187 188 187 187 184 182 180 178 181 183 182 181 177 183 206 201 197 197 198 191 185 186 186 186 183 177 173 172 172 169 164 165 167 166 163 147 122 118 130 123 100 63 35 349 4 105 203 270 165 256 312 258 209 184 160 186 129 211 269 289 262 64 58 60 201 224 239 240 240 244 245 247 250 254 258
215 208 201 197 196 195 195 193 189 188 190 188 184 182 182 181 180 177 175 171 170 173 176 178 177 177 204 206 192 190 190 191 187 184 183 179 179 178 172 165 160 161 154 150 154 156 159 154 139 131 108 104 103 94 89 39 270 294 38 184 232 179 186 278 284 273 118 128 244 125 200 250 267 260 260 281 291 270 254 256 258 256 258 256 255 256 257 259
217 209 201 197 194 191 192 192 186 185 186 182 178 174 172 169 168 169 166 161 156 153 163 173 166 171 239 208 190 188 186 183 182 180 177 174 174 173 168 159 155 153 143 140 148 148 148 134 123 127 38 60 112 107 125 210 194 191 196 171 237 210 192 233 247 260 56 86 240 187 234 257 264 271 270 268 271 271 264 265 269 269 266 263 260 258 259 260
220 211 200 195 192 188 189 188 183 182 179 175 171 163 157 153 151 156 160 159 153 143 160 181 171 160 259 193 183 182 181 179 178 176 173 172 171 171 164 154 154 151 139 132 136 135 128 100 93 115 146 172 187 156 166 197 172 170 178 148 163 187 228 241 247 262 161 131 247 229 232 256 265 274 273 271 274 269 265 268 268 268 266 263 261 259 259 259
224 212 198 192 189 185 185 185 181 177 172 169 164 156 151 146 133 141 164 164 163 156 301 183 181 197 12 174 176 174 172 173 177 175 171 173 170 165 156 150 150 139 132 141 143 124 102 114 156 188 196 193 193 178 157 155 139 136 125 108 151 178 249 257 264 291 131 154 254 247 247 260 261 267 269 272 278 271 260 260 259 261 260 259 258 258 257 256
225 209 193 188 185 181 181 182 179 173 168 167 164 159 162 161 146 159 169 170 178 172 19 180 184 207 101 169 174 168 163 165 177 177 173 174 168 160 157 151 135 112 134 134 120 84 83 136 211 219 207 192 183 170 127 105 93 97 118 117 125 189 245 265 266 293 14 139 270 328 311 272 256 259 268 271 273 259 251 248 251 255 255 257 258 258 259 259
220 203 187 183 181 178 177 178 175 172 168 168 169 168 176 174 172 177 167 166 187 174 130 176 184 199 167 169 172 166 161 157 175 182 176 172 169 168 167 149 121 136 160 101 97 52 58 192 235 228 197 142 117 138 119 105 91 83 114 124 142 218 259 303 305 310 11 106 275 350 334 281 265 252 258 259 252 256 257 252 254 257 257 259 259 260 262 264
205 190 178 177 176 174 174 174 173 173 171 170 172 174 179 176 174 175 166 141 179 182 171 179 189 196 163 163 175 171 165 155 172 183 178 174 175 174 165 146 119 137 133 129 130 112 116 243 244 205 157 111 87 119 119 99 83 89 111 128 214 246 193 283 298 310 347 54 292 336 315 284 286 277 263 257 251 262 269 264 262 259 258 260 261 263 265 266
185 178 172 170 171 171 171 173 174 175 174 171 173 179 179 177 171 166 162 99 148 191 195 187 196 201 180 164 178 179 174 172 176 182 180 179 175 169 168 155 123 133 159 157 143 149 199 251 209 127 117 110 102 106 127 130 112 7 133 143 186 211 172 203 298 327 347 15 13 6 324 291 312 335 294 280 263 269 276 276 274 266 260 262 263 263 260 260
167 168 168 166 167 169 169 174 176 176 176 171 171 179 177 177 173 163 155 74 84 193 200 196 202 207 197 179 181 180 174 180 182 183 183 182 175 163 169 160 138 164 179 144 129 161 231 255 137 117 83 96 115 131 164 156 159 310 236 173 169 165 158 177 358 32 33 350 335 32 1 289 306 310 272 288 303 282 286 288 278 273 267 261 260 260 259 260
157 160 162 164 165 167 169 174 176 176 177 173 168 171 173 174 168 163 146 51 311 202 181 191 195 198 196 188 175 164 163 200 188 184 183 183 180 167 157 155 133 172 168 139 127 177 233 359 107 125 117 102 110 162 203 145 117 283 245 166 145 129 120 130 85 57 74 260 297 57 101 265 298 281 247 274 299 288 294 289 272 270 267 263 262 262 264 266
147 153 158 163 166 169 168 171 178 179 179 176 164 157 166 166 160 161 135 32 270 182 150 180 184 182 189 181 169 157 149 181 165 180 183 180 183 173 166 175 122 153 162 132 140 226 168 90 69 93 102 100 118 184 209 134 115 238 234 130 125 117 121 138 110 93 211 250 322 17 116 234 289 269 235 299 312 297 290 282 275 275 275 275 273 271 271 270
143 147 154 162 167 171 171 173 180 181 181 177 162 151 156 156 154 154 125 41 206 150 143 178 170 174 179 172 172 165 138 153 144 180 182 177 183 175 170 195 161 147 148 128 175 252 139 151 162 125 100 118 173 219 208 129 104 245 207 125 127 126 129 126 101 99 360 357 313 307 126 207 270 275 305 336 304 292 288 283 285 292 295 294 290 286 283 272
151 151 149 155 163 170 173 175 179 181 184 180 167 153 148 149 148 132 91 183 163 111 137 164 160 171 167 160 172 164 137 150 139 168 174 175 184 174 132 189 160 116 68 99 166 230 59 176 189 140 128 184 201 252 208 137 105 177 142 98 78 74 82 79 91 106 36 357 255 228 179 203 269 285 314 349 285 268 280 286 287 306 324 339 1 61 98 107
163 156 151 156 161 167 171 171 177 182 184 182 178 167 148 144 140 119 170 212 153 92 118 154 165 168 155 147 162 163 139 134 123 144 159 170 177 162 122 156 140 102 42 35 105 236 329 100 136 111 144 176 150 76 59 118 132 134 102 63 45 29 36 44 55 81 55 291 256 230 201 188 273 281 270 220 215 231 264 305 314 339 22 56 77 97 108 108
176 164 161 168 167 165 167 168 175 179 179 180 180 172 151 133 110 141 193 207 116 110 100 144 179 157 156 156 156 165 108 63 139 144 147 150 159 150 127 140 110 92 46 27 58 321 356 68 28 28 139 131 107 63 37 52 101 109 80 71 61 350 6 16 2 43 97 256 265 266 226 153 223 263 266 249 253 240 234 319 330 355 49 76 93 105 109 94
185 178 172 177 177 167 164 168 171 172 174 174 172 169 150 109 196 194 197 162 135 179 165 170 202 165 161 153 138 157 111 91 164 152 146 148 160 177 163 172 155 121 186 187 137 331 35 65 299 332 186 154 110 70 31 14 38 77 90 96 86 343 4 349 307 315 227 245 274 308 308 195 229 245 259 266 266 235 217 259 315 344 56 86 103 101 69 358
185 182 177 182 187 177 169 168 168 168 169 167 164 160 120 119 208 202 185 219 186 172 154 147 143 146 153 145 150 165 111 128 187 160 149 142 161 204 230 203 155 130 187 178 125 130 229 310 305 75 263 210 146 123 135 306 88 127 136 132 130 128 116 267 268 284 266 262 296 320 318 266 272 264 243 250 261 231 221 260 291 320 55 104 120 341 315 311
176 179 182 189 189 185 181 171 167 167 164 162 158 142 121 187 207 156 160 212 180 84 109 123 115 129 148 149 181 178 99 126 181 143 137 138 152 205 234 232 178 101 111 152 148 167 181 276 226 171 203 192 177 170 160 148 153 175 154 135 150 159 162 211 219 216 252 281 301 294 266 209 223 289 255 256 281 281 265 282 297 297 286 266 256 260 269 280
169 173 182 189 189 189 189 177 169 166 164 161 151 146 184 198 208 140 169 195 149 69 57 100 118 135 160 94 221 200 146 167 178 131 153 169 172 195 195 204 198 136 128 163 195 166 166 249 246 270 167 166 174 194 145 116 113 230 119 112 178 187 149 139 190 181 188 308 299 251 229 215 210 282 277 272 289 293 296 307 309 309 312 296 274 268 261 256
174 169 174 187 191 190 188 182 173 169 169 162 148 191 200 196 191 182 174 153 145 131 106 93 100 135 170 154 209 222 210 114 157 147 186 197 203 200 193 204 195 176 160 160 172 155 148 265 281 351 20 162 159 170 146 129 172 178 140 180 216 174 118 110 241 353 74 265 273 215 249 286 331 293 286 299 298 293 299 301 306 320 320 291 281 293 294 244
191 176 176 187 190 190 190 185 176 174 176 168 171 202 199 126 172 184 175 126 136 138 130 137 150 147 167 172 191 205 192 109 153 167 190 199 231 196 193 230 200 186 187 160 169 198 154 229 292 94 164 275 49 121 95 51 122 130 180 209 194 89 82 107 216 341 40 257 273 264 252 281 320 273 307 8 289 265 279 289 308 310 292 276 285 326 32 61
210 200 192 191 187 189 191 191 185 178 174 168 200 213 172 91 196 108 35 130 129 129 135 161 161 141 167 180 189 188 177 165 173 182 178 192 241 193 171 205 202 193 202 180 143 211 152 166 300 11 171 280 14 116 107 10 77 131 178 176 121 120 209 111 161 204 173 253 277 291 276 257 213 226 260 88 196 221 259 277 288 280 275 284 332 43 63 51
209 211 216 211 202 193 184 187 186 175 164 176 207 214 169 131 242 98 81 79 116 125 152 181 161 125 171 173 164 174 186 181 171 180 183 185 234 203 173 185 195 194 199 185 159 196 146 168 256 306 225 307 23 152 192 226 39 63 104 122 103 138 170 161 162 168 168 214 260 302 305 261 219 195 177 198 213 217 252 270 272 279 286 318 56 70 61 44
190 193 225 220 211 209 173 161 168 165 166 198 197 191 104 113 245 221 69 46 70 107 166 192 160 142 168 168 157 171 184 177 168 182 204 188 211 234 194 189 174 181 189 180 169 169 131 176 221 299 328 213 193 206 185 169 156 141 157 173 171 105 109 163 177 126 141 175 212 277 284 265 244 185 175 197 219 224 236 247 258 291 32 86 81 64 46 35
171 167 223 207 205 212 193 158 149 147 167 226 125 103 146 51 290 262 26 48 59 67 109 149 150 151 154 157 177 178 162 159 173 183 209 200 201 230 212 197 169 146 159 171 192 193 165 169 172 165 222 206 228 242 194 182 177 167 181 193 183 161 131 153 231 261 126 175 182 193 276 269 227 185 185 192 215 217 196 189 178 102 89 82 63 48 37 30
168 162 200 187 195 204 199 181 134 127 150 222 146 140 164 93 23 203 97 72 65 52 72 94 124 142 149 162 173 163 153 159 181 186 204 210 201 201 212 200 178 158 151 173 203 186 131 110 134 173 215 216 241 265 227 214 206 139 179 191 175 164 143 154 206 234 193 228 183 133 280 276 205 184 203 189 187 182 172 169 141 108 81 53 43 42 36 30
172 174 166 173 188 191 185 185 166 166 208 183 156 162 169 131 73 220 203 145 96 62 73 75 103 118 144 160 149 162 167 171 184 191 201 211 208 213 215 192 177 163 156 176 195 163 125 111 141 215 309 308 308 325 353 360 156 185 262 164 156 175 163 157 182 177 173 217 184 133 256 268 304 263 214 169 152 155 159 149 127 100 46 33 41 40 30 19
170 160 160 177 188 181 174 181 183 181 192 160 159 199 209 198 189 186 178 150 140 110 115 158 180 134 155 103 117 170 184 184 193 197 195 190 203 216 215 187 179 169 171 189 175 170 182 172 140 140 344 331 331 323 310 319 185 194 226 194 181 173 140 118 137 136 203 220 186 181 241 250 301 324 334 85 102 122 130 123 100 35 16 29 37 21 5 348
161 152 173 194 190 180 180 210 173 169 176 167 172 187 186 223 235 215 200 136 159 165 151 180 148 116 128 91 81 114 127 138 182 180 170 191 220 260 35 191 189 186 200 201 174 167 178 191 159 162 196 210 211 215 215 200 159 197 214 195 192 178 161 165 160 156 226 226 178 192 241 243 258 11 29 63 98 117 139 354 347 345 358 16 7 350 337 326
161 175 187 197 195 191 202 208 173 169 181 177 176 180 179 190 233 216 207 186 188 183 140 121 140 110 110 128 117 141 82 54 106 144 157 188 231 298 26 64 173 182 190 181 169 159 142 210 193 192 210 211 207 215 199 149 157 202 211 185 190 195 183 180 170 191 220 222 185 224 242 251 254 227 165 245 197 202 272 297 315 326 336 336 332 324 315 310
161 217 179 167 201 210 212 201 184 179 175 175 174 170 180 185 186 201 203 202 195 183 151 44 155 162 182 174 159 180 184 80 74 118 166 182 218 295 352 34 98 154 147 154 168 156 115 222 207 205 222 219 193 197 187 167 179 199 198 184 192 197 186 187 206 218 217 199 242 241 226 243 256 236 204 244 253 259 279 289 302 319 326 318 313 306 302 301
189 287 194 173 168 206 213 197 186 185 172 175 180 162 173 186 186 183 196 199 189 182 177 154 193 195 192 175 170 170 161 143 173 195 187 180 201 2 2 3 17 25 50 131 159 141 141 211 210 199 219 219 164 151 174 180 191 200 197 195 198 196 191 197 213 221 209 194 237 243 208 224 252 237 186 227 232 233 263 278 291 301 301 299 297 294 294 298
212 263 242 211 197 231 217 168 165 179 195 179 184 179 176 189 197 194 173 148 175 196 191 197 204 204 198 175 172 178 170 172 199 202 181 163 173 140 103 260 340 4 29 75 60 82 158 205 211 163 205 216 184 159 153 164 173 199 205 203 201 203 204 206 215 223 219 214 241 254 241 243 252 209 189 233 231 236 261 275 280 281 284 287 288 289 294 301
210 235 238 229 239 324 95 146 161 184 203 188 201 205 190 193 198 198 174 162 178 190 193 207 208 196 194 191 190 204 205 194 191 197 182 168 188 183 157 191 193 16 24 61 13 349 164 191 72 107 194 235 192 168 138 140 159 206 235 227 213 211 216 220 226 233 235 242 252 261 272 266 245 166 216 248 245 247 262 268 272 278 283 285 289 293 298 304
208 220 225 227 29 193 173 146 158 176 193 198 207 202 201 204 195 186 185 195 193 175 185 205 204 181 189 196 198 216 223 212 197 176 155 152 183 200 201 211 131 75 20 61 67 19 79 159 43 83 191 233 182 162 160 125 119 224 253 241 223 209 209 218 225 221 214 228 242 247 255 262 240 155 232 257 239 234 255 262 272 286 292 292 294 299 305 305
208 216 223 213 26 208 192 133 151 181 201 209 211 202 193 192 173 166 183 213 206 198 197 198 183 163 184 193 204 220 226 226 231 230 204 202 226 232 234 245 219 163 159 92 82 74 109 123 100 113 195 238 193 152 149 115 114 241 246 234 221 213 209 207 222 226 213 210 226 235 242 260 270 186 245 268 243 247 270 280 289 294 290 287 291 295 305 314